SCP
0 0 0 0 0 0 0 0 0 0 0 0 0 0 0 0 0 0 0 0 0 0 0 0 0 0 0 0 0 0 0 0 0 0 0 0 0 0 0 0 0 0 -0
0 0 0 0 0 0 0 0 0 0 0 0 0 0 0 0 0 0 0 0 0 0 0 0 0 0 0 0 0 0 0 0 0 0 0 0 0 0 0 0 0 0 0
0 0 0 0 0 0 0 0 0 0 0 0 0 0 0 0 0 0 0 0 0 0 0 0 0 0 0 0 0 0 0 0 0 0 0 0 0 0 0 0 0 0 0
0 0 0 0 0 0 0 0 0 0 0 0 0 0 0 0 0 0 0 0 0 0 0 0 0 0 0 0 0 0 0 0 0 0 0 0 0 0 0 0 0 0 0
0 0 0 0 0 0 0 0 0 0 0 0 0 0 0 0 0 0 0 0 0 0 0 0 0 0 0 0 0 0 0 0 0 0 0 0 0 0 0 0 0 0 0
0 0 0 0 0 0 0 0 0 0 0 0 0 0 0 0 0 0 0 0 0 0 0 0 0 0 0 0 0 0 0 0 0 0 0 0 0 0 0 0 0 0 0
0 0 0 0 0 0 0 0 0 0 0 0 0 0 0 0 0 0 0 0 0 0 0 0 0 0 0 0 0 0 0 0 0 0 0 0 0 0 0 0 0 0 0
0 0 0 0 0 0 0 0 0 0 0 0 0 0 0 0 0 0 0 0 0 0 0 0 0 0 0 0 0 0 0 0 0 0 0 0 0 0 0 0 0 0 0
0 0 0 0 0 0 0 0 0 0 0 0 0 0 0 0 0 0 0 0 0 0 0 0 0 0 0 0 0 0 0 0 0 0 0 0 0 0 0 0 0 0 0
0 0 0 0 0 0 0 0 0 0 0 0 0 0 0 0 0 0 0 0 0 0 0 0 0 0 0 0 0 0 0 0 0 0 0 0 0 0 0 0 0 0 0
0 0 0 0 0 0 0 0 0 0 0 0 0 0 0 0 0 0 0 0 0 0 0 0 0 0 0 0 0 0 0 0 0 0 0 0 0 0 0 0 0 0 0
0 0 0 0 0 0 0 0 0 0 0 0 0 0 0 0 0 0 0 0 0 0 0 0 0 0 0 0 0 0 0 0 0 0 0 0 0 0 0 0 0 0 0
0 0 0 0 0 0 0 0 0 0 0 0 0 0 0 0 0 0 0 0 0 0 0 0 0 0 0 0 0 0 0 0 0 0 0 0 0 0 0 0 0 0 0
0 0 0 0 0 0 0 0 0 0 0 0 0 0 0 0 0 0 0 0 0 0 0 0 0 0 0 0 0 0 0 0 0 0 0 0 0 0 0 0 0 0 0
0 0 0 0 0 0 0 0 0 0 0 0 0 0 0 0 0 0 0 0 0 0 0 0 0 0 0 0 0 0 0 0 0 0 0 0 0 0 0 0 0 0 0
0 0 0 0 0 0 0 0 0 0 0 0 0 0 0 0 0 0 0 0 0 0 0 0 0 0 0 0 0 0 0 0 0 0 0 0 0 0 0 0 0 0 0
0 0 0 0 0 0 0 0 0 0 -0 0 0 0 0 0 0 0 0 0 0 0 0 0 0 0 0 0 0 0 0 0 0 0 0 0 0 0 0 0 0 0 0
0 0 0 0 0 0 0 0 0 0 0 0 0 0 0 0 0 0 0 0 0 0 0 0 0 0 0 0 0 0 0 0 0 0 0 0 0 0 0 0 0 0 0
0 0 0 0 0 0 0 0 0 0 0 0 0 0 0 0 0 0 0 0 0 0 0 0 0 0 0 0 0 0 0 0 0 0 0 0 0 0 0 0 0 0 0
0 0 0 0 0 0 0 0 0 0 0 0 0 0 0 0 0 0 0 0 0 0 0 0 0 0 0 0 0 0 0 0 0 0 0 0 0 0 0 0 0 0 0
0 0 0 0 0 0 0 0 0 0 0 0 0 0 0 0 0 0 0 0 0 0 0 0 0 0 0 0 0 0 0 0 0 0 0 0 0 0 0 0 0 0 0
0 0 0 0 0 0 0 0 0 0 0 0 0 0 0 0 0 0 0 0 0 0 0 0 0 0 0 0 0 0 0 0 0 0 0 0 0 0 0 0 0 0 0
0 0 0 0 0 0 0 0 0 0 0 0 0 0 0 0 0 0 0 0 0 0 0 0 0 0 0 0 0 0 0 0 0 0 0 0 0 0 0 0 0 0 0
0 0 0 0 0 0 0 0 0 0 0 0 0 0 0 0 0 0 0 0 0 0 0 0 0 0 0 0 0 0 0 0 0 0 0 0 0 0 0 0 0 0 0
0 0 0 0 0 0 0 0 0 0 0 0 0 0 0 0 0 0 0 0 0 0 0 0 0 0 0 0 0 0 0 0 0 0 0 0 0 0 0 0 0 0 0
0 0 0 0 0 0 0 0 0 0 0 0 0 0 0 0 0 0 0 0 0 0 0 0 0 0 0 0 0 0 0 0 0 0 0 0 0 0 0 0 0 0 0
Wind_Speed_500mb
59 59 55 56 55 56 52 46 40 37 31 31 30 31 31 29 27 26 23 23 23 23 22 18 18 19 19 20 19 18 17 19 21 11 3 9 13 5 8 12 14 16 23
60 64 57 61 64 62 56 48 45 42 37 33 33 34 34 31 29 28 26 25 23 23 22 18 15 16 16 14 13 15 15 20 21 10 3 6 13 8 2 8 4 8 17
71 68 59 63 67 63 55 52 48 45 42 37 37 38 37 35 33 32 28 25 23 22 21 19 15 16 13 11 12 12 10 9 14 8 3 10 12 5 3 5 5 5 11
72 67 63 69 66 67 57 54 49 44 42 42 40 40 38 37 36 33 29 27 25 24 22 21 19 18 16 11 13 13 12 8 8 5 5 6 6 5 2 2 6 4 4
74 73 74 68 63 62 57 49 49 46 44 43 43 42 41 40 39 36 32 29 26 25 24 23 22 19 17 14 13 13 13 11 10 6 4 4 4 3 2 4 7 8 4
76 79 75 70 63 62 57 50 49 49 47 48 46 44 44 41 39 37 33 30 28 26 24 24 23 20 17 15 13 12 10 9 7 5 4 3 3 5 7 6 7 5 4
84 85 80 74 67 63 56 51 54 52 52 51 45 47 44 42 41 38 31 28 25 24 23 23 22 21 18 15 13 12 10 9 6 3 2 3 3 5 8 11 11 13 11
84 84 82 77 68 61 56 56 56 55 55 54 51 48 44 45 44 40 32 29 28 26 24 23 23 21 19 16 13 10 8 5 4 3 3 4 4 5 7 12 13 11 11
76 81 80 75 70 61 59 59 56 58 56 51 49 49 46 47 45 43 38 34 32 29 26 24 24 22 20 15 12 10 9 7 9 8 5 6 5 7 7 10 9 12 11
70 74 73 70 66 56 61 65 61 57 53 57 48 50 48 47 47 43 42 39 37 36 33 30 27 25 21 15 12 11 13 13 13 10 8 9 7 7 10 11 12 11 11
59 58 61 62 61 63 63 62 57 58 63 54 49 52 47 48 48 45 43 42 40 38 35 31 29 27 23 17 15 15 15 16 15 14 14 14 9 6 7 8 8 7 6
42 49 51 62 64 62 63 63 55 59 57 55 51 50 45 47 47 46 45 43 43 41 37 31 29 27 25 21 19 18 18 18 18 19 19 18 14 11 11 9 8 9 8
35 44 59 62 61 58 59 59 55 55 57 53 56 46 48 48 45 42 43 44 45 43 36 31 30 29 28 25 24 23 22 23 23 23 24 23 19 17 14 12 10 11 10
36 44 59 64 61 59 59 55 53 50 55 56 54 51 47 43 44 42 40 46 46 44 38 35 34 33 32 32 31 29 27 27 28 28 29 28 26 23 20 16 15 17 13
40 48 58 62 60 60 59 54 53 48 55 59 53 49 49 46 42 41 41 44 45 46 43 45 46 43 41 37 35 35 32 30 28 26 28 30 29 28 26 22 21 22 20
47 59 58 57 61 60 57 54 48 42 43 46 45 47 45 40 34 34 35 37 40 44 51 55 51 48 48 44 42 39 37 36 29 26 24 23 27 25 25 26 27 25 23
49 52 61 57 55 60 58 56 52 47 47 51 52 53 50 46 40 40 38 38 42 48 56 55 56 54 52 49 47 44 42 35 29 31 28 25 22 25 29 34 32 29 25
33 52 57 58 56 54 56 55 55 51 50 51 58 58 55 51 46 45 43 44 54 60 60 59 56 55 55 54 51 49 45 39 38 35 34 30 27 30 31 32 32 29 27
22 31 48 54 54 51 51 51 57 48 48 51 56 59 58 56 52 51 53 62 65 68 68 65 60 57 54 53 53 52 50 47 43 40 38 35 34 35 36 35 35 33 34
23 23 31 36 39 42 45 48 53 55 51 49 53 56 53 53 57 61 63 67 70 74 73 73 70 64 60 57 56 55 55 52 51 48 44 39 37 36 39 36 35 37 39
22 19 23 26 28 32 36 38 37 36 37 41 46 45 45 48 53 58 62 66 71 75 77 75 73 72 67 62 59 60 58 57 54 52 48 42 39 41 39 38 38 38 43
12 14 19 20 21 21 23 24 24 26 30 36 38 37 37 41 45 48 50 50 48 50 50 51 54 58 59 60 58 56 56 56 56 54 53 50 45 42 41 40 42 46 48
6 8 12 15 19 20 24 27 30 32 35 37 37 37 39 44 47 50 51 51 49 47 46 46 44 44 42 40 43 48 51 52 51 51 56 57 53 47 46 47 45 46 49
5 8 7 6 7 10 14 20 27 30 32 34 38 42 44 45 47 48 46 47 50 49 43 41 40 37 36 35 36 39 42 42 47 52 51 51 54 52 49 48 44 50 60
7 9 8 8 11 14 20 23 25 27 31 36 39 38 39 42 46 45 42 41 39 37 37 37 39 39 37 38 42 45 49 41 40 44 48 48 53 52 47 46 49 53 56
5 7 10 14 20 23 24 26 30 32 32 30 31 36 38 39 38 37 37 38 40 40 38 41 44 48 44 41 42 41 41 44 41 49 51 53 54 51 49 48 49 52 54
Wind_Direction_500mb
227 226 229 225 223 231 233 228 229 230 231 228 212 203 199 194 188 185 179 168 169 168 171 165 154 151 158 159 165 170 168 166 168 155 196 354 356 7 326 354 43 16 15
237 229 229 232 225 226 228 228 230 233 232 220 207 202 198 193 189 191 190 181 178 172 174 172 168 166 174 168 164 163 156 164 172 192 197 345 353 7 215 288 8 22 9
232 230 235 227 225 220 224 229 227 228 223 217 209 203 200 199 197 196 199 192 182 180 182 183 186 187 183 176 178 181 175 181 193 228 288 346 351 358 229 216 245 319 354
227 228 228 229 226 225 221 228 225 222 223 213 207 204 201 199 199 201 202 198 189 186 185 189 196 199 192 186 187 190 194 212 222 236 302 310 323 357 51 252 241 258 330
228 233 223 224 229 226 222 222 225 223 219 216 209 205 203 204 205 207 207 202 198 194 188 188 192 190 187 184 182 186 196 207 218 241 270 274 322 348 324 11 345 341 332
230 227 223 223 224 225 222 218 217 215 214 213 211 212 209 206 206 207 208 205 201 198 195 192 191 191 189 186 187 185 181 186 195 199 221 252 327 9 354 351 348 342 351
227 223 222 222 220 222 222 219 216 214 211 213 215 216 214 213 211 214 211 207 205 200 197 196 194 191 187 183 185 184 192 194 189 203 243 281 334 2 357 355 7 360 2
221 222 221 217 219 220 222 219 216 213 211 220 216 217 217 214 214 218 218 215 211 206 200 201 199 194 191 186 185 201 208 205 232 273 296 295 306 316 333 353 360 1 346
225 223 221 219 219 221 220 219 216 211 216 216 222 225 219 216 217 219 217 218 217 215 209 207 209 204 200 202 203 213 242 255 263 270 282 308 312 302 331 352 339 345 344
227 227 226 223 225 232 231 223 219 220 213 217 219 228 219 221 222 221 217 218 218 217 214 211 214 215 212 218 222 223 237 249 259 267 281 284 296 332 332 328 329 332 339
232 233 231 232 233 231 227 228 218 212 217 218 217 228 218 222 221 220 219 219 220 220 220 218 217 223 223 226 236 239 242 252 254 253 258 267 270 284 302 301 302 319 336
229 227 228 226 226 222 223 223 216 221 221 215 216 221 217 217 217 220 222 222 222 225 228 226 221 230 231 239 249 258 263 263 254 256 261 265 273 292 297 294 327 337 326
213 222 227 222 223 225 227 221 217 219 218 218 211 213 215 211 210 215 224 228 231 234 233 229 233 235 237 249 256 262 268 260 257 256 261 264 269 273 274 280 295 299 277
217 220 222 222 224 226 225 225 225 222 220 208 208 214 217 216 215 220 227 230 232 237 237 237 243 247 248 250 258 264 267 260 256 255 254 255 256 258 260 273 284 283 262
218 221 222 226 227 227 227 232 230 238 229 216 212 223 221 224 233 239 241 243 241 242 243 243 244 249 254 256 258 259 258 254 254 253 248 248 250 251 256 268 276 281 270
219 219 223 229 225 223 223 225 229 230 225 216 224 240 240 250 256 254 251 246 242 244 244 247 251 254 255 257 259 258 256 255 252 252 247 245 245 250 257 265 270 270 267
221 223 225 228 228 223 224 224 222 221 212 218 225 239 243 249 249 249 250 249 250 249 249 252 253 254 256 257 256 254 255 259 256 252 254 255 254 257 257 270 261 260 263
230 229 230 231 232 229 228 228 223 228 226 224 223 233 239 244 243 245 250 246 243 248 250 253 254 254 255 255 254 255 256 253 253 258 257 255 257 259 266 265 254 255 267
255 237 235 237 238 236 231 232 226 227 226 232 235 237 239 243 243 242 242 246 254 256 260 260 261 261 260 259 257 256 255 252 255 257 260 258 258 259 266 264 260 259 266
260 255 240 237 238 236 234 232 229 233 233 231 239 244 246 243 241 242 243 246 252 258 260 264 266 267 266 266 263 260 256 250 248 250 255 257 258 259 264 263 261 259 260
253 248 234 230 230 231 231 230 231 235 240 245 249 251 253 253 254 256 258 257 255 261 265 269 270 270 269 266 263 257 254 250 247 247 249 252 255 255 263 263 261 260 262
234 235 225 223 222 220 223 227 235 243 250 258 262 263 261 257 258 259 261 264 266 269 274 275 275 272 269 263 260 255 251 248 246 246 246 249 250 254 258 260 260 262 267
189 210 212 216 226 236 242 248 253 254 258 263 265 264 264 265 266 266 267 268 270 270 271 274 275 273 268 259 251 250 249 249 249 249 251 250 249 249 251 257 262 267 271
169 166 176 195 221 240 252 258 260 261 263 265 267 267 266 270 275 274 273 271 269 267 268 268 267 266 263 260 258 257 255 254 253 255 257 251 250 249 248 255 263 267 260
233 247 252 244 248 256 259 262 263 267 268 268 264 265 269 269 273 271 270 272 271 268 266 266 266 264 265 263 265 268 261 251 260 263 255 252 253 250 250 257 259 256 264
216 233 252 269 279 277 271 268 267 270 274 276 273 267 266 265 266 265 266 267 268 270 273 272 272 272 261 266 266 262 273 259 262 260 245 253 246 243 245 247 257 269 274
Wind_Speed_850mb
59 59 55 56 55 56 52 46 40 37 31 31 30 31 31 29 27 26 23 23 23 23 22 18 18 19 19 20 19 18 17 19 21 11 3 9 13 5 8 12 14 16 23
60 64 57 61 64 62 56 48 45 42 37 33 33 34 34 31 29 28 26 25 23 23 22 18 15 16 16 14 13 15 15 20 21 10 3 6 13 8 2 8 4 8 17
71 68 59 63 67 63 55 52 48 45 42 37 37 38 37 35 33 32 28 25 23 22 21 19 15 16 13 11 12 12 10 9 14 8 3 10 12 5 3 5 5 5 11
72 67 63 69 66 67 57 54 49 44 42 42 40 40 38 37 36 33 29 27 25 24 22 21 19 18 16 11 13 13 12 8 8 5 5 6 6 5 2 2 6 4 4
74 73 74 68 63 62 57 49 49 46 44 43 43 42 41 40 39 36 32 29 26 25 24 23 22 19 17 14 13 13 13 11 10 6 4 4 4 3 2 4 7 8 4
76 79 75 70 63 62 57 50 49 49 47 48 46 44 44 41 39 37 33 30 28 26 24 24 23 20 17 15 13 12 10 9 7 5 4 3 3 5 7 6 7 5 4
84 85 80 74 67 63 56 51 54 52 52 51 45 47 44 42 41 38 31 28 25 24 23 23 22 21 18 15 13 12 10 9 6 3 2 3 3 5 8 11 11 13 11
84 84 82 77 68 61 56 56 56 55 55 54 51 48 44 45 44 40 32 29 28 26 24 23 23 21 19 16 13 10 8 5 4 3 3 4 4 5 7 12 13 11 11
76 81 80 75 70 61 59 59 56 58 56 51 49 49 46 47 45 43 38 34 32 29 26 24 24 22 20 15 12 10 9 7 9 8 5 6 5 7 7 10 9 12 11
70 74 73 70 66 56 61 65 61 57 53 57 48 50 48 47 47 43 42 39 37 36 33 30 27 25 21 15 12 11 13 13 13 10 8 9 7 7 10 11 12 11 11
59 58 61 62 61 63 63 62 57 58 63 54 49 52 47 48 48 45 43 42 40 38 35 31 29 27 23 17 15 15 15 16 15 14 14 14 9 6 7 8 8 7 6
42 49 51 62 64 62 63 63 55 59 57 55 51 50 45 47 47 46 45 43 43 41 37 31 29 27 25 21 19 18 18 18 18 19 19 18 14 11 11 9 8 9 8
35 44 59 62 61 58 59 59 55 55 57 53 56 46 48 48 45 42 43 44 45 43 36 31 30 29 28 25 24 23 22 23 23 23 24 23 19 17 14 12 10 11 10
36 44 59 64 61 59 59 55 53 50 55 56 54 51 47 43 44 42 40 46 46 44 38 35 34 33 32 32 31 29 27 27 28 28 29 28 26 23 20 16 15 17 13
40 48 58 62 60 60 59 54 53 48 55 59 53 49 49 46 42 41 41 44 45 46 43 45 46 43 41 37 35 35 32 30 28 26 28 30 29 28 26 22 21 22 20
47 59 58 57 61 60 57 54 48 42 43 46 45 47 45 40 34 34 35 37 40 44 51 55 51 48 48 44 42 39 37 36 29 26 24 23 27 25 25 26 27 25 23
49 52 61 57 55 60 58 56 52 47 47 51 52 53 50 46 40 40 38 38 42 48 56 55 56 54 52 49 47 44 42 35 29 31 28 25 22 25 29 34 32 29 25
33 52 57 58 56 54 56 55 55 51 50 51 58 58 55 51 46 45 43 44 54 60 60 59 56 55 55 54 51 49 45 39 38 35 34 30 27 30 31 32 32 29 27
22 31 48 54 54 51 51 51 57 48 48 51 56 59 58 56 52 51 53 62 65 68 68 65 60 57 54 53 53 52 50 47 43 40 38 35 34 35 36 35 35 33 34
23 23 31 36 39 42 45 48 53 55 51 49 53 56 53 53 57 61 63 67 70 74 73 73 70 64 60 57 56 55 55 52 51 48 44 39 37 36 39 36 35 37 39
22 19 23 26 28 32 36 38 37 36 37 41 46 45 45 48 53 58 62 66 71 75 77 75 73 72 67 62 59 60 58 57 54 52 48 42 39 41 39 38 38 38 43
12 14 19 20 21 21 23 24 24 26 30 36 38 37 37 41 45 48 50 50 48 50 50 51 54 58 59 60 58 56 56 56 56 54 53 50 45 42 41 40 42 46 48
6 8 12 15 19 20 24 27 30 32 35 37 37 37 39 44 47 50 51 51 49 47 46 46 44 44 42 40 43 48 51 52 51 51 56 57 53 47 46 47 45 46 49
5 8 7 6 7 10 14 20 27 30 32 34 38 42 44 45 47 48 46 47 50 49 43 41 40 37 36 35 36 39 42 42 47 52 51 51 54 52 49 48 44 50 60
7 9 8 8 11 14 20 23 25 27 31 36 39 38 39 42 46 45 42 41 39 37 37 37 39 39 37 38 42 45 49 41 40 44 48 48 53 52 47 46 49 53 56
5 7 10 14 20 23 24 26 30 32 32 30 31 36 38 39 38 37 37 38 40 40 38 41 44 48 44 41 42 41 41 44 41 49 51 53 54 51 49 48 49 52 54
Wind_Direction_850mb
227 226 229 225 223 231 233 228 229 230 231 228 212 203 199 194 188 185 179 168 169 168 171 165 154 151 158 159 165 170 168 166 168 155 196 354 356 7 326 354 43 16 15
237 229 229 232 225 226 228 228 230 233 232 220 207 202 198 193 189 191 190 181 178 172 174 172 168 166 174 168 164 163 156 164 172 192 197 345 353 7 215 288 8 22 9
232 230 235 227 225 220 224 229 227 228 223 217 209 203 200 199 197 196 199 192 182 180 182 183 186 187 183 176 178 181 175 181 193 228 288 346 351 358 229 216 245 319 354
227 228 228 229 226 225 221 228 225 222 223 213 207 204 201 199 199 201 202 198 189 186 185 189 196 199 192 186 187 190 194 212 222 236 302 310 323 357 51 252 241 258 330
228 233 223 224 229 226 222 222 225 223 219 216 209 205 203 204 205 207 207 202 198 194 188 188 192 190 187 184 182 186 196 207 218 241 270 274 322 348 324 11 345 341 332
230 227 223 223 224 225 222 218 217 215 214 213 211 212 209 206 206 207 208 205 201 198 195 192 191 191 189 186 187 185 181 186 195 199 221 252 327 9 354 351 348 342 351
227 223 222 222 220 222 222 219 216 214 211 213 215 216 214 213 211 214 211 207 205 200 197 196 194 191 187 183 185 184 192 194 189 203 243 281 334 2 357 355 7 360 2
221 222 221 217 219 220 222 219 216 213 211 220 216 217 217 214 214 218 218 215 211 206 200 201 199 194 191 186 185 201 208 205 232 273 296 295 306 316 333 353 360 1 346
225 223 221 219 219 221 220 219 216 211 216 216 222 225 219 216 217 219 217 218 217 215 209 207 209 204 200 202 203 213 242 255 263 270 282 308 312 302 331 352 339 345 344
227 227 226 223 225 232 231 223 219 220 213 217 219 228 219 221 222 221 217 218 218 217 214 211 214 215 212 218 222 223 237 249 259 267 281 284 296 332 332 328 329 332 339
232 233 231 232 233 231 227 228 218 212 217 218 217 228 218 222 221 220 219 219 220 220 220 218 217 223 223 226 236 239 242 252 254 253 258 267 270 284 302 301 302 319 336
229 227 228 226 226 222 223 223 216 221 221 215 216 221 217 217 217 220 222 222 222 225 228 226 221 230 231 239 249 258 263 263 254 256 261 265 273 292 297 294 327 337 326
213 222 227 222 223 225 227 221 217 219 218 218 211 213 215 211 210 215 224 228 231 234 233 229 233 235 237 249 256 262 268 260 257 256 261 264 269 273 274 280 295 299 277
217 220 222 222 224 226 225 225 225 222 220 208 208 214 217 216 215 220 227 230 232 237 237 237 243 247 248 250 258 264 267 260 256 255 254 255 256 258 260 273 284 283 262
218 221 222 226 227 227 227 232 230 238 229 216 212 223 221 224 233 239 241 243 241 242 243 243 244 249 254 256 258 259 258 254 254 253 248 248 250 251 256 268 276 281 270
219 219 223 229 225 223 223 225 229 230 225 216 224 240 240 250 256 254 251 246 242 244 244 247 251 254 255 257 259 258 256 255 252 252 247 245 245 250 257 265 270 270 267
221 223 225 228 228 223 224 224 222 221 212 218 225 239 243 249 249 249 250 249 250 249 249 252 253 254 256 257 256 254 255 259 256 252 254 255 254 257 257 270 261 260 263
230 229 230 231 232 229 228 228 223 228 226 224 223 233 239 244 243 245 250 246 243 248 250 253 254 254 255 255 254 255 256 253 253 258 257 255 257 259 266 265 254 255 267
255 237 235 237 238 236 231 232 226 227 226 232 235 237 239 243 243 242 242 246 254 256 260 260 261 261 260 259 257 256 255 252 255 257 260 258 258 259 266 264 260 259 266
260 255 240 237 238 236 234 232 229 233 233 231 239 244 246 243 241 242 243 246 252 258 260 264 266 267 266 266 263 260 256 250 248 250 255 257 258 259 264 263 261 259 260
253 248 234 230 230 231 231 230 231 235 240 245 249 251 253 253 254 256 258 257 255 261 265 269 270 270 269 266 263 257 254 250 247 247 249 252 255 255 263 263 261 260 262
234 235 225 223 222 220 223 227 235 243 250 258 262 263 261 257 258 259 261 264 266 269 274 275 275 272 269 263 260 255 251 248 246 246 246 249 250 254 258 260 260 262 267
189 210 212 216 226 236 242 248 253 254 258 263 265 264 264 265 266 266 267 268 270 270 271 274 275 273 268 259 251 250 249 249 249 249 251 250 249 249 251 257 262 267 271
169 166 176 195 221 240 252 258 260 261 263 265 267 267 266 270 275 274 273 271 269 267 268 268 267 266 263 260 258 257 255 254 253 255 257 251 250 249 248 255 263 267 260
233 247 252 244 248 256 259 262 263 267 268 268 264 265 269 269 273 271 270 272 271 268 266 266 266 264 265 263 265 268 261 251 260 263 255 252 253 250 250 257 259 256 264
216 233 252 269 279 277 271 268 267 270 274 276 273 267 266 265 266 265 266 267 268 270 273 272 272 272 261 266 266 262 273 259 262 260 245 253 246 243 245 247 257 269 274